Regional Weather Roundup
Issued by NWS

Home | Current Version | Previous Version | Graphics & Text | Print | Product List | Glossary On
Versions: 1 2 3 4 5 6 7 8 9 10 11 12 13 14 15 16 17 18 19 20 21 22 23 24 25 26 27 28 29 30 31 32 33 34 35 36 37 38 39 40 41 42 43 44 45 46 47 48 49 50
000
ASUS43 KLSX 151207
RWRMO

WEATHER SUMMARY FOR MISSOURI
NATIONAL WEATHER SERVICE SPRINGFIELD MO
600 AM CST MON JAN 15 2018

NOTE: "FAIR" INDICATES FEW OR NO CLOUDS BELOW 12,000 FEET WITH NO
       SIGNIFICANT WEATHER AND/OR OBSTRUCTIONS TO VISIBILITY.
       CURRENT SKY AND/OR WEATHER CONDITIONS ARE NOT AVAILABLE FOR
       CHILLICOTHE AND FARMINGTON.

MOZ001>031-035>038-043-044-053-054-151300-
...NORTHERN AND WESTERN MISSOURI...

CITY           SKY/WX    TMP DP  RH WIND       PRES   REMARKS
KANSAS CTY INT CLOUDY    14   4  64 N15G30    30.39R WCI  -1
6HR MIN TEMP:  14; 6HR MAX TEMP:  33;

KANSAS C DTWN  CLOUDY    18   5  57 NW18G26   30.39R WCI   2
6HR MIN TEMP:  18; 6HR MAX TEMP:  35;

LEE`S SUMMIT   CLOUDY    18   8  65 NW21G30   30.35R WCI   1
6HR MIN TEMP:  18; 6HR MAX TEMP:  33; 6HR PCP: TRACE;

ST JOSEPH        N/A    N/A N/A N/A MISG      30.43R
CHILLICOTHE      N/A     17   8  67 NW12G22   30.35R WCI   4
6HR MIN TEMP:  17; 6HR MAX TEMP:  31;

KIRKSVILLE     CLEAR     10   4  76 NW14      30.28R WCI  -6
6HR MIN TEMP:  10; 6HR MAX TEMP:  29; 6HR PCP: TRACE;


$$
MOZ066>068-077>081-088>096-101>105-151300-
...SOUTHWEST MISSOURI...

CITY           SKY/WX    TMP DP  RH WIND       PRES   REMARKS
SPRINGFIELD    LGT SNOW  31  29  92 NW6       30.26R FOG     WCI  25
6HR MIN TEMP:  24; 6HR MAX TEMP:  32; 6HR PCP:  0.05;

JOPLIN         LGT SNOW  31  31 100 N8        30.31R FOG     WCI  23
6HR MIN TEMP:  31; 6HR MAX TEMP:  35; 6HR PCP: TRACE;


$$
MOZ032>034-039>042-045>050-055>058-069>072-151300-
...CENTRAL MISSOURI...

CITY           SKY/WX    TMP DP  RH WIND       PRES   REMARKS
COLUMBIA       CLOUDY    26  18  71 NW15G25   30.25R WCI  14
6HR MIN TEMP:  26; 6HR MAX TEMP:  31; 6HR PCP:  0.08;

JEFFERSON CITY CLOUDY    31  25  78 NW10      30.26R WCI  22
6HR MIN TEMP:  28; 6HR MAX TEMP:  32; 6HR PCP: TRACE;

ROLLA          LGT SNOW  27  27 100 W8        30.22R FOG     WCI  19
6HR MIN TEMP:  25; 6HR MAX TEMP:  27; 6HR PCP:  0.03;

SEDALIA        CLOUDY    23  16  74 NW17      30.31R WCI   9
6HR MIN TEMP:  23; 6HR MAX TEMP:  33; 6HR PCP:  0.06;

WHITEMAN AFB   PTCLDY    21  12  66 N20G26    30.28R WCI   6
WARRENSBURG    CLOUDY    21  12  68 NW21G28   30.34R WCI   6
OSAGE BEACH    LGT SNOW  28  27  93 NW9       30.28R FOG     WCI  20

$$
MOZ051-052-059>065-151300-
...EAST CENTRAL MISSOURI...

CITY           SKY/WX    TMP DP  RH WIND       PRES   REMARKS
ST LOUIS INTL  LGT SNOW  28  26  92 SW13      30.19R FOG     WCI  17
6HR MIN TEMP:  25; 6HR MAX TEMP:  28; 6HR PCP:  0.06;

SPIRIT OF STL  LGT SNOW  28  27  96 W8        30.20R VSB 1   WCI  20
6HR MIN TEMP:  26; 6HR MAX TEMP:  28; 6HR PCP: TRACE;

ST CHARLES     CLOUDY    29  26  89 W9        30.19R WCI  20
6HR MIN TEMP:  25; 6HR MAX TEMP:  29; 6HR PCP:  0.02;


$$
MOZ072>076-082>087-097>100-106>115-151300-
...SOUTH CENTRAL AND SOUTHEAST MISSOURI...

CITY           SKY/WX    TMP DP  RH WIND       PRES   REMARKS
CAPE GIRARDEAU CLOUDY    26  19  74 S8        30.29R WCI  18
6HR MIN TEMP:  22; 6HR MAX TEMP:  26;

FARMINGTON     LGT SNOW  24  22  91 S6        30.22R FOG     WCI  17
6HR MIN TEMP:  20; 6HR MAX TEMP:  24; 6HR PCP: TRACE;

POPLAR BLUFF   CLOUDY    28  22  78 SW10      30.29R WCI  19
6HR MIN TEMP:  23; 6HR MAX TEMP:  28;

WEST PLAINS    CLOUDY    23  18  81 W5        30.24R WCI  17
6HR MIN TEMP:  18; 6HR MAX TEMP:  23;


$$



USA.gov is the U.S. government's official web portal to all federal, state and local government web resources and services.